User: anonymous   Login
Location: Unspecified
(0.0000°N, 0.0000°E)
Time: 08:08:57
(UTC+00:00)
Language:

CUBEBUG 1 - Orbit

View from above orbital plane
View from above orbital plane
View from above satellite
View from above satellite

Ground track
Ground track

The orbit data is extracted from the following two-line orbital elements,

1 39153U 13018D   19345.81277017  .00000169  00000-0  29004-4 0  9994
2 39153  97.9822  82.9894 0016570 352.4130   7.6829 14.80637070357875
Epoch (UTC): 11 December 2019 19:30:23
Eccentricity: 0.0016570
inclination: 97.9822°
perigee height: 616 km
apogee height: 639 km
right ascension of ascending node: 82.9894°
argument of perigee: 352.4130°
revolutions per day: 14.80637070
mean anomaly at epoch: 7.6829°
orbit number at epoch: 35787

The dashed part of the orbit path shows where the satellite is in the earth's shadow,  

DLR